This is the latest recevied weather packets stored in our database for station/object N6GPM. If no packets are shown the sender has not sent any weather packets the latest 10 day(s).
| Time | Temp. | Humidity | Pressure | Rain* | Wind** | Luminosity | Snow |
|---|---|---|---|---|---|---|---|
| 1778012220 | 16.11° C | 55% | 1018 hPa | 0 mm | - | 908 W/m² | - |
| 1778011919 | 16.11° C | 55% | 1017.7 hPa | 0 mm | - | 387 W/m² | - |
| 1778011611 | 16.67° C | 56% | 1017.9 hPa | 0 mm | - | 1051 W/m² | - |
| 1778011308 | 16.67° C | 55% | 1017.8 hPa | 0 mm | - | 565 W/m² | - |
| 1778011003 | 16.67° C | 58% | 1017.7 hPa | 0 mm | - | 510 W/m² | - |
| 1778010701 | 16.11° C | 55% | 1018.1 hPa | 0 mm | - | 355 W/m² | - |
| 1778010398 | 16.11° C | 56% | 1018.1 hPa | 0 mm | - | 764 W/m² | - |
| 1778010094 | 16.11° C | 57% | 1018 hPa | 0 mm | - | 505 W/m² | - |
| 1778009791 | 16.11° C | 59% | 1018.1 hPa | 0 mm | - | 365 W/m² | - |
| 1778009488 | 16.67° C | 58% | 1018.1 hPa | 0 mm | - | 343 W/m² | - |
| 1778009187 | 16.11° C | 57% | 1018 hPa | 0 mm | - | 941 W/m² | - |
| 1778008884 | 16.11° C | 56% | 1018.3 hPa | 0 mm | - | 637 W/m² | - |
| 1778008582 | 15.56° C | 58% | 1018.4 hPa | 0 mm | - | 999 W/m² | - |
| 1778008280 | 15.56° C | 59% | 1018.5 hPa | 0 mm | - | 450 W/m² | - |
| 1778007975 | 15.56° C | 60% | 1018.1 hPa | 0 mm | - | 390 W/m² | - |
| 1778007670 | 15.56° C | 62% | 1018.2 hPa | 0 mm | - | 497 W/m² | - |
| 1778007368 | 15.56° C | 62% | 1018.2 hPa | 0 mm | - | 865 W/m² | - |
| 1778007064 | 15° C | 63% | 1018.4 hPa | 0 mm | - | 466 W/m² | - |
| 1778006760 | 15.56° C | 61% | 1018.2 hPa | 0 mm | - | 435 W/m² | - |
| 1778006457 | 15° C | 62% | 1018.5 hPa | 0 mm | - | 393 W/m² | - |
| 1778006154 | 14.44° C | 64% | 1018.3 hPa | 0 mm | - | 996 W/m² | - |
| 1778005852 | 14.44° C | 65% | 1018.2 hPa | 0 mm | - | 408 W/m² | - |
| 1778005548 | 15° C | 67% | 1018.4 hPa | 0 mm | - | 375 W/m² | - |
| 1778005245 | 14.44° C | 69% | 1018.3 hPa | 0 mm | - | 974 W/m² | - |
| 1778004941 | 13.89° C | 71% | 1018.4 hPa | 0 mm | - | 416 W/m² | - |
* Rain latest hour (hover to see other rain measurements)
** Current wind speed in m/s (hover to see current wind gust speed)